Location: Anuling
(14.1239°N, 120.8922°E)
Time: 04:38:39
(UTC+00:00)

SL-4 R/B - Visible Passes

Search period start: 21 April 2026 00:00
Search period end: 01 May 2026 00:00
Orbit: 381 x 508 km, 51.6° (Epoch: 20 April)

Date Brightness Start Highest point End Pass type
(mag) Time Alt. Az. Time Alt. Az. Time Alt. Az.
21 Apr 1.6 11:02:11 10° SSW 11:05:44 61° SE 11:09:27 10° NE visible
21 Apr 3.7 20:59:52 10° NNW 21:03:08 30° NE 21:06:17 10° ESE visible
22 Apr 5.0 12:02:13 10° WNW 12:03:40 12° NW 12:05:08 10° NNW visible
22 Apr 4.5 20:20:49 10° N 20:23:33 19° NE 20:26:14 10° E visible
23 Apr 4.6 11:21:28 10° W 11:24:02 18° NW 11:26:40 10° N visible
23 Apr 4.9 19:42:11 10° NNE 19:43:56 13° NE 19:45:39 10° ENE visible
24 Apr 4.0 10:41:19 10° WSW 10:44:25 28° NW 10:47:39 10° N visible
24 Apr 1.7 20:38:10 10° NW 20:41:47 52° SW 20:45:14 10° SSE visible
25 Apr 2.5 20:03:20 43° SE 20:03:20 43° SE 20:05:49 10° SE visible
